TimeEDT,TemperatureF,Dew PointF,Humidity,Sea Level PressureIn,VisibilityMPH,Wind Direction,Wind SpeedMPH,Gust SpeedMPH,PrecipitationIn,Events,Conditions,WindDirDegrees,DateUTC
12:58 AM,66.9,66.0,97,29.94,6.0,Calm,Calm,-,N/A,,Scattered Clouds,0,2013-10-17 04:58:00
1:10 AM,66.2,66.2,100,29.94,1.8,Calm,Calm,-,N/A,,Partly Cloudy,0,2013-10-17 05:10:00
1:21 AM,64.4,64.4,100,29.95,3.0,Calm,Calm,-,N/A,,Clear,0,2013-10-17 05:21:00
1:58 AM,66.9,66.9,100,29.96,6.0,NW,8.1,-,N/A,,Clear,310,2013-10-17 05:58:00
2:30 AM,66.2,66.2,100,29.95,6.0,North,4.6,-,N/A,,Partly Cloudy,350,2013-10-17 06:30:00
2:58 AM,64.9,64.9,100,29.94,6.0,North,3.5,-,N/A,,Clear,360,2013-10-17 06:58:00
3:32 AM,64.4,64.4,100,29.93,2.5,NNW,3.5,-,N/A,,Clear,330,2013-10-17 07:32:00
3:40 AM,64.4,64.4,100,29.93,5.0,NNW,3.5,-,N/A,,Clear,340,2013-10-17 07:40:00
3:58 AM,64.9,64.9,100,29.93,5.0,NW,5.8,-,N/A,,Partly Cloudy,320,2013-10-17 07:58:00
4:47 AM,-9999,-9999,N/A,29.93,1.8,NNW,4.6,-,N/A,,Mostly Cloudy,340,2013-10-17 08:47:00
4:58 AM,-9999,-9999,N/A,29.94,1.0,NNW,6.9,-,N/A,,Mist,330,2013-10-17 08:58:00
5:06 AM,-9999,-9999,N/A,29.93,0.8,NNW,5.8,-,N/A,,Overcast,330,2013-10-17 09:06:00
5:13 AM,-9999,-9999,N/A,29.93,1.2,North,3.5,-,N/A,,Overcast,350,2013-10-17 09:13:00
5:23 AM,-9999,-9999,N/A,29.94,1.0,NNW,4.6,-,N/A,,Mist,330,2013-10-17 09:23:00
5:35 AM,-9999,-9999,N/A,29.94,2.0,NNW,4.6,-,N/A,,Overcast,330,2013-10-17 09:35:00
5:44 AM,-9999,-9999,N/A,29.94,3.0,Calm,Calm,-,N/A,,Overcast,0,2013-10-17 09:44:00
5:54 AM,-9999,-9999,N/A,29.94,1.5,Calm,Calm,-,N/A,,Overcast,0,2013-10-17 09:54:00
5:55 AM,-9999,-9999,N/A,29.95,1.2,Calm,Calm,-,N/A,,Overcast,0,2013-10-17 09:55:00
5:57 AM,-9999,-9999,N/A,29.94,0.8,Calm,Calm,-,N/A,,Overcast,0,2013-10-17 09:57:00
6:58 AM,-9999,-9999,N/A,29.96,0.2,Calm,Calm,-,N/A,Fog,Fog,0,2013-10-17 10:58:00
7:30 AM,-9999,-9999,N/A,29.95,1.2,NW,4.6,-,N/A,,Overcast,310,2013-10-17 11:30:00
7:36 AM,-9999,-9999,N/A,29.95,0.8,NW,4.6,-,N/A,,Overcast,320,2013-10-17 11:36:00
7:44 AM,-9999,-9999,N/A,29.95,1.2,NW,3.5,-,N/A,,Overcast,320,2013-10-17 11:44:00
7:52 AM,-9999,-9999,N/A,29.96,3.0,NW,3.5,-,N/A,,Mostly Cloudy,320,2013-10-17 11:52:00
7:58 AM,-9999,-9999,N/A,29.97,4.0,NNW,4.6,-,N/A,,Haze,330,2013-10-17 11:58:00
8:08 AM,-9999,-9999,N/A,29.96,3.0,Calm,Calm,-,N/A,,Scattered Clouds,0,2013-10-17 12:08:00
8:58 AM,-9999,-9999,N/A,29.98,6.0,Calm,Calm,-,N/A,,Haze,0,2013-10-17 12:58:00
9:58 AM,-9999,-9999,N/A,29.99,9.0,WNW,3.5,-,N/A,,Clear,290,2013-10-17 13:58:00
10:58 AM,-9999,-9999,N/A,29.99,9.0,WSW,3.5,-,N/A,,Clear,250,2013-10-17 14:58:00
11:58 AM,-9999,-9999,N/A,29.98,10.0,WSW,4.6,-,0.03,,Clear,240,2013-10-17 15:58:00
12:58 PM,75.0,64.0,69,29.95,10.0,SSW,9.2,-,N/A,,Clear,210,2013-10-17 16:58:00
1:58 PM,73.9,64.0,71,29.93,10.0,SW,10.4,-,N/A,,Clear,220,2013-10-17 17:58:00
2:58 PM,73.9,64.0,71,29.91,10.0,SSW,11.5,-,N/A,,Clear,210,2013-10-17 18:58:00
3:58 PM,73.9,64.9,73,29.90,10.0,SSW,9.2,-,N/A,,Clear,200,2013-10-17 19:58:00
4:58 PM,73.0,64.0,73,29.90,10.0,SSW,10.4,-,N/A,,Clear,210,2013-10-17 20:58:00
5:58 PM,72.0,64.9,78,29.89,10.0,SW,10.4,-,N/A,,Clear,220,2013-10-17 21:58:00
6:58 PM,71.1,64.9,81,29.90,10.0,SW,9.2,-,N/A,,Clear,220,2013-10-17 22:58:00
7:58 PM,71.1,66.9,87,29.91,10.0,SW,9.2,-,N/A,,Clear,220,2013-10-17 23:58:00
8:58 PM,72.0,66.9,84,29.92,10.0,SW,10.4,-,N/A,,Clear,220,2013-10-18 00:58:00
9:58 PM,72.0,66.9,84,29.92,10.0,SW,11.5,-,N/A,,Clear,220,2013-10-18 01:58:00
10:58 PM,72.0,68.0,87,29.91,10.0,SW,12.7,-,N/A,,Clear,220,2013-10-18 02:58:00
11:58 PM,72.0,68.0,87,29.91,10.0,SW,10.4,-,N/A,,Clear,230,2013-10-18 03:58:00